Precipitable_Water
1.61 1.67 1.76 1.70 1.68 1.72 1.72 1.73 1.67 1.65 1.70 1.70 1.71 1.76 1.78 1.78 1.78 1.79 1.81 1.76 1.67 1.68 1.74 1.76 1.81 1.85 1.85 1.85 1.89 1.92 1.91 1.87 1.79 1.72 1.69 1.65 1.59 1.59 1.59 1.64 1.68 1.61 1.45 1.43 1.49 1.51 1.56 1.57 1.54 1.52 1.46 1.41 1.44 1.47 1.50 1.53 1.54 1.57 1.60 1.61 1.62 1.63 1.62 1.62 1.63 1.63 1.64 1.67 1.68 1.71 1.74 1.74 1.75 1.76 1.76 1.76 1.77 1.74 1.71 1.73 1.77 1.82 1.86 1.89 1.92
1.56 1.68 1.75 1.77 1.80 1.83 1.78 1.77 1.74 1.81 1.77 1.80 1.91 1.89 1.81 1.78 1.72 1.76 1.77 1.75 1.75 1.75 1.74 1.76 1.79 1.81 1.84 1.83 1.90 1.96 1.99 1.96 1.92 1.85 1.78 1.71 1.64 1.65 1.67 1.61 1.64 1.66 1.49 1.43 1.55 1.52 1.49 1.51 1.51 1.48 1.45 1.41 1.43 1.46 1.49 1.51 1.52 1.56 1.59 1.60 1.61 1.64 1.63 1.61 1.60 1.61 1.62 1.62 1.62 1.62 1.63 1.65 1.68 1.70 1.70 1.70 1.72 1.72 1.70 1.70 1.72 1.78 1.83 1.85 1.85
1.78 1.80 1.84 1.87 1.87 1.85 1.77 1.87 1.90 1.93 1.90 1.91 1.99 1.97 1.90 1.79 1.81 1.77 1.74 1.73 1.76 1.76 1.73 1.72 1.78 1.79 1.83 1.87 1.89 1.95 1.98 2.01 2.00 1.94 1.85 1.80 1.74 1.72 1.78 1.74 1.63 1.63 1.60 1.47 1.50 1.51 1.49 1.47 1.48 1.49 1.44 1.41 1.41 1.43 1.46 1.49 1.50 1.52 1.55 1.60 1.62 1.61 1.62 1.60 1.58 1.59 1.61 1.63 1.64 1.64 1.63 1.62 1.62 1.62 1.63 1.63 1.65 1.66 1.65 1.67 1.70 1.75 1.78 1.78 1.80
1.73 1.81 1.87 1.86 1.86 1.91 1.89 1.82 1.82 1.92 1.86 1.81 1.82 1.94 1.96 1.97 1.85 1.77 1.75 1.76 1.77 1.78 1.75 1.71 1.72 1.77 1.80 1.84 1.91 1.92 1.92 1.97 1.99 1.97 1.91 1.88 1.88 1.87 1.85 1.87 1.78 1.64 1.63 1.60 1.50 1.49 1.51 1.50 1.46 1.46 1.48 1.43 1.41 1.40 1.41 1.44 1.47 1.50 1.51 1.55 1.58 1.59 1.59 1.59 1.59 1.59 1.60 1.62 1.63 1.64 1.65 1.65 1.64 1.63 1.62 1.61 1.61 1.62 1.63 1.65 1.68 1.72 1.75 1.75 1.74
1.69 1.87 1.87 1.84 1.87 1.90 1.95 1.97 1.96 1.97 1.91 1.83 1.75 1.86 1.83 1.75 1.74 1.82 1.74 1.68 1.67 1.71 1.76 1.73 1.69 1.73 1.79 1.82 1.87 1.90 1.92 1.94 1.93 1.95 1.91 1.89 1.90 1.87 1.84 1.86 1.89 1.84 1.67 1.66 1.63 1.52 1.52 1.57 1.53 1.46 1.45 1.47 1.45 1.42 1.40 1.40 1.43 1.45 1.48 1.50 1.54 1.56 1.56 1.56 1.57 1.58 1.60 1.62 1.63 1.64 1.66 1.66 1.66 1.66 1.65 1.65 1.63 1.65 1.65 1.65 1.67 1.70 1.73 1.73 1.73
1.77 1.72 1.75 1.83 1.92 1.93 1.95 2.01 2.05 2.01 1.97 1.95 1.93 1.93 1.85 1.82 1.84 1.78 1.70 1.70 1.67 1.69 1.69 1.69 1.75 1.79 1.78 1.81 1.82 1.85 1.89 1.92 1.93 1.90 1.90 1.91 1.93 1.90 1.85 1.83 1.82 1.85 1.90 1.76 1.68 1.64 1.54 1.57 1.59 1.57 1.49 1.44 1.46 1.46 1.44 1.43 1.41 1.43 1.45 1.46 1.47 1.50 1.52 1.52 1.53 1.53 1.55 1.58 1.60 1.63 1.64 1.64 1.64 1.64 1.64 1.65 1.65 1.65 1.66 1.67 1.69 1.71 1.72 1.71 1.70
1.82 1.75 1.69 1.74 1.77 1.83 1.86 1.98 2.01 2.00 1.99 1.98 1.98 1.94 1.84 1.72 1.69 1.71 1.70 1.72 1.75 1.80 1.77 1.73 1.73 1.74 1.76 1.78 1.78 1.85 1.88 1.83 1.89 1.91 1.89 1.90 1.91 1.87 1.84 1.82 1.81 1.80 1.80 1.86 1.86 1.72 1.65 1.58 1.59 1.61 1.58 1.51 1.43 1.44 1.46 1.46 1.44 1.43 1.44 1.45 1.45 1.44 1.46 1.46 1.46 1.48 1.49 1.52 1.55 1.56 1.58 1.59 1.59 1.59 1.60 1.60 1.62 1.62 1.62 1.63 1.65 1.67 1.68 1.69 1.69
1.86 1.84 1.79 1.78 1.73 1.75 1.88 1.99 2.02 2.01 1.93 1.90 1.86 1.84 1.84 1.80 1.83 1.81 1.73 1.71 1.72 1.71 1.77 1.77 1.75 1.72 1.78 1.75 1.74 1.74 1.83 1.83 1.83 1.87 1.89 1.89 1.86 1.85 1.83 1.81 1.81 1.80 1.82 1.83 1.88 1.92 1.81 1.68 1.58 1.59 1.61 1.59 1.53 1.43 1.43 1.46 1.47 1.46 1.44 1.43 1.44 1.44 1.42 1.44 1.45 1.45 1.46 1.48 1.50 1.52 1.53 1.53 1.53 1.53 1.54 1.55 1.57 1.59 1.59 1.60 1.60 1.62 1.63 1.62 1.63
1.91 1.88 1.81 1.76 1.74 1.76 1.84 1.87 1.88 1.84 1.81 1.80 1.77 1.74 1.72 1.79 1.83 1.92 1.87 1.71 1.71 1.68 1.67 1.72 1.76 1.76 1.74 1.75 1.75 1.72 1.73 1.82 1.85 1.84 1.89 1.84 1.84 1.84 1.82 1.78 1.79 1.80 1.82 1.82 1.83 1.87 1.91 1.85 1.71 1.60 1.60 1.62 1.61 1.55 1.43 1.42 1.44 1.45 1.45 1.44 1.42 1.41 1.39 1.39 1.41 1.43 1.44 1.47 1.48 1.49 1.50 1.50 1.51 1.50 1.49 1.51 1.52 1.53 1.56 1.57 1.58 1.59 1.60 1.59 1.59
1.80 1.80 1.75 1.73 1.71 1.72 1.75 1.84 1.87 1.76 1.67 1.68 1.72 1.76 1.71 1.68 1.70 1.78 1.78 1.69 1.62 1.61 1.59 1.62 1.69 1.74 1.74 1.68 1.68 1.68 1.72 1.73 1.80 1.87 1.84 1.83 1.84 1.83 1.81 1.80 1.77 1.77 1.79 1.82 1.83 1.82 1.87 1.88 1.81 1.69 1.60 1.62 1.64 1.64 1.55 1.43 1.40 1.42 1.44 1.43 1.42 1.40 1.39 1.39 1.41 1.43 1.45 1.47 1.48 1.50 1.52 1.53 1.53 1.53 1.52 1.53 1.54 1.54 1.55 1.56 1.56 1.57 1.59 1.59 1.58
1.84 1.88 1.76 1.68 1.69 1.75 1.77 1.77 1.80 1.77 1.64 1.59 1.59 1.63 1.61 1.58 1.56 1.57 1.62 1.60 1.56 1.58 1.58 1.57 1.59 1.64 1.71 1.74 1.72 1.67 1.66 1.66 1.75 1.85 1.84 1.81 1.82 1.85 1.85 1.79 1.76 1.75 1.76 1.81 1.84 1.86 1.84 1.89 1.87 1.83 1.74 1.63 1.65 1.66 1.65 1.57 1.46 1.43 1.43 1.43 1.43 1.42 1.42 1.42 1.43 1.45 1.47 1.48 1.50 1.51 1.53 1.54 1.54 1.55 1.55 1.55 1.57 1.58 1.59 1.59 1.60 1.61 1.59 1.58 1.57
1.63 1.71 1.72 1.68 1.60 1.56 1.59 1.65 1.66 1.66 1.58 1.47 1.38 1.37 1.37 1.35 1.32 1.35 1.39 1.48 1.54 1.48 1.52 1.57 1.59 1.60 1.60 1.63 1.69 1.68 1.62 1.64 1.66 1.67 1.78 1.83 1.82 1.84 1.81 1.80 1.76 1.73 1.73 1.75 1.78 1.82 1.83 1.85 1.85 1.88 1.91 1.84 1.69 1.67 1.67 1.67 1.58 1.50 1.45 1.43 1.43 1.43 1.44 1.46 1.48 1.49 1.50 1.50 1.50 1.51 1.52 1.54 1.55 1.56 1.55 1.56 1.57 1.59 1.60 1.62 1.64 1.65 1.65 1.64 1.62
1.38 1.44 1.45 1.47 1.45 1.42 1.41 1.40 1.41 1.38 1.28 1.17 1.16 1.18 1.23 1.22 1.23 1.34 1.31 1.26 1.22 1.31 1.42 1.58 1.57 1.54 1.58 1.55 1.56 1.65 1.62 1.59 1.59 1.63 1.69 1.79 1.84 1.82 1.83 1.80 1.76 1.75 1.76 1.75 1.74 1.75 1.77 1.80 1.82 1.82 1.84 1.90 1.88 1.77 1.71 1.68 1.66 1.57 1.50 1.46 1.44 1.45 1.44 1.45 1.48 1.51 1.52 1.51 1.51 1.53 1.54 1.55 1.56 1.56 1.57 1.58 1.58 1.59 1.62 1.64 1.66 1.66 1.67 1.67 1.66
1.24 1.23 1.25 1.25 1.23 1.25 1.25 1.25 1.21 1.10 1.05 1.04 1.02 1.05 1.06 1.08 1.13 1.14 1.25 1.22 1.18 1.28 1.38 1.51 1.48 1.43 1.37 1.39 1.45 1.54 1.62 1.60 1.53 1.56 1.65 1.72 1.78 1.80 1.80 1.78 1.74 1.73 1.76 1.77 1.72 1.69 1.70 1.75 1.79 1.78 1.78 1.79 1.83 1.89 1.79 1.70 1.65 1.61 1.55 1.49 1.47 1.46 1.45 1.44 1.46 1.48 1.50 1.50 1.51 1.54 1.56 1.56 1.55 1.57 1.60 1.61 1.61 1.61 1.63 1.65 1.66 1.67 1.68 1.67 1.67
1.21 1.22 1.20 1.21 1.19 1.18 1.17 1.20 1.14 1.08 0.99 0.98 0.97 0.95 0.98 1.05 1.16 1.17 1.16 1.29 1.30 1.35 1.38 1.45 1.36 1.52 1.55 1.46 1.33 1.30 1.46 1.52 1.56 1.58 1.67 1.63 1.72 1.73 1.78 1.77 1.76 1.77 1.77 1.75 1.72 1.69 1.66 1.67 1.72 1.77 1.77 1.75 1.75 1.77 1.83 1.81 1.71 1.66 1.61 1.55 1.51 1.49 1.49 1.49 1.49 1.50 1.50 1.50 1.52 1.54 1.56 1.57 1.58 1.59 1.59 1.59 1.60 1.62 1.63 1.64 1.64 1.65 1.66 1.66 1.66
1.16 1.14 1.14 1.14 1.18 1.19 1.18 1.13 1.13 1.12 1.06 1.02 1.00 0.96 0.99 1.08 1.19 1.24 1.26 1.13 1.18 1.20 1.32 1.33 1.27 1.40 1.35 1.36 1.38 1.38 1.26 1.35 1.40 1.52 1.72 1.69 1.67 1.69 1.74 1.75 1.80 1.82 1.81 1.75 1.73 1.72 1.68 1.66 1.64 1.70 1.76 1.77 1.75 1.74 1.73 1.76 1.73 1.72 1.71 1.64 1.57 1.54 1.52 1.54 1.55 1.55 1.54 1.53 1.55 1.57 1.56 1.56 1.57 1.58 1.59 1.58 1.58 1.59 1.61 1.62 1.63 1.63 1.63 1.64 1.64
1.14 1.08 1.07 1.05 1.06 1.04 1.04 1.07 1.14 1.20 1.20 1.16 1.12 1.07 1.09 1.18 1.23 1.23 1.21 1.12 1.06 1.15 1.25 1.24 1.19 1.37 1.40 1.32 1.32 1.28 1.28 1.39 1.50 1.55 1.63 1.58 1.62 1.66 1.66 1.70 1.75 1.80 1.79 1.76 1.77 1.76 1.74 1.69 1.66 1.66 1.67 1.73 1.77 1.77 1.74 1.71 1.71 1.73 1.74 1.74 1.64 1.57 1.53 1.52 1.53 1.55 1.56 1.54 1.54 1.56 1.57 1.58 1.59 1.59 1.60 1.60 1.59 1.60 1.60 1.60 1.61 1.62 1.63 1.63 1.64
1.04 1.05 1.08 1.09 1.07 1.12 1.09 1.07 1.13 1.22 1.20 1.15 1.17 1.22 1.25 1.26 1.31 1.30 1.25 1.24 1.08 1.01 1.02 1.14 1.18 1.23 1.32 1.39 1.37 1.30 1.37 1.51 1.49 1.29 1.60 1.68 1.75 1.74 1.63 1.63 1.70 1.75 1.74 1.69 1.69 1.74 1.75 1.68 1.67 1.65 1.67 1.67 1.71 1.77 1.77 1.73 1.69 1.68 1.69 1.70 1.69 1.60 1.54 1.50 1.50 1.52 1.55 1.55 1.52 1.51 1.52 1.54 1.58 1.60 1.59 1.59 1.60 1.60 1.60 1.59 1.60 1.61 1.62 1.63 1.64
1.03 1.05 1.07 1.09 1.10 1.14 1.14 1.13 1.15 1.18 1.25 1.28 1.28 1.32 1.39 1.43 1.46 1.38 1.29 1.27 1.24 1.03 1.00 1.05 1.17 1.24 1.32 1.39 1.43 1.52 1.60 1.50 1.37 1.48 1.36 1.63 1.68 1.62 1.57 1.59 1.64 1.68 1.68 1.62 1.59 1.70 1.74 1.71 1.63 1.63 1.67 1.70 1.69 1.70 1.77 1.78 1.74 1.66 1.64 1.63 1.62 1.60 1.54 1.48 1.45 1.50 1.55 1.55 1.52 1.50 1.49 1.48 1.51 1.54 1.55 1.54 1.56 1.59 1.59 1.59 1.59 1.59 1.61 1.62 1.62
1.08 1.10 1.09 1.14 1.11 1.08 1.11 1.13 1.17 1.19 1.36 1.37 1.27 1.35 1.44 1.38 1.31 1.28 1.28 1.25 1.22 1.16 1.13 1.14 1.06 1.04 1.25 1.35 1.44 1.46 1.51 1.58 1.55 1.47 1.39 1.36 1.39 1.57 1.64 1.64 1.67 1.63 1.64 1.60 1.57 1.61 1.64 1.70 1.66 1.63 1.67 1.72 1.74 1.71 1.73 1.78 1.79 1.72 1.63 1.58 1.56 1.57 1.53 1.46 1.41 1.41 1.46 1.54 1.55 1.50 1.46 1.44 1.44 1.47 1.50 1.52 1.53 1.54 1.57 1.59 1.59 1.59 1.60 1.62 1.63
1.14 1.12 1.15 1.16 1.17 1.13 1.13 1.15 1.14 1.15 1.24 1.21 1.27 1.38 1.42 1.38 1.34 1.26 1.16 1.14 1.17 1.19 1.20 1.17 1.16 1.14 1.28 1.31 1.43 1.50 1.47 1.42 1.49 1.51 1.44 1.39 1.37 1.38 1.53 1.63 1.58 1.59 1.73 1.70 1.64 1.62 1.62 1.69 1.66 1.62 1.67 1.73 1.79 1.79 1.75 1.75 1.78 1.78 1.71 1.62 1.57 1.54 1.53 1.50 1.44 1.40 1.40 1.46 1.53 1.53 1.48 1.41 1.39 1.42 1.45 1.48 1.49 1.51 1.53 1.56 1.58 1.59 1.60 1.62 1.64
1.06 1.09 1.11 1.11 1.18 1.17 1.13 1.12 1.16 1.21 1.28 1.24 1.21 1.26 1.31 1.38 1.42 1.36 1.28 1.19 1.20 1.19 1.15 1.13 1.19 1.29 1.37 1.37 1.35 1.51 1.52 1.43 1.38 1.39 1.46 1.52 1.38 1.44 1.52 1.49 1.42 1.51 1.59 1.55 1.65 1.74 1.69 1.63 1.59 1.60 1.66 1.73 1.80 1.84 1.84 1.81 1.79 1.79 1.77 1.67 1.58 1.56 1.55 1.54 1.51 1.45 1.41 1.41 1.46 1.51 1.50 1.45 1.40 1.38 1.40 1.44 1.46 1.47 1.50 1.53 1.55 1.56 1.58 1.59 1.62
1.03 1.02 1.02 1.03 1.07 1.16 1.18 1.17 1.16 1.13 1.21 1.28 1.21 1.21 1.24 1.27 1.25 1.22 1.32 1.32 1.24 1.22 1.13 1.08 1.10 1.15 1.22 1.27 1.28 1.49 1.46 1.40 1.31 1.36 1.37 1.35 1.42 1.46 1.50 1.50 1.48 1.47 1.60 1.58 1.51 1.66 1.85 1.75 1.63 1.64 1.66 1.70 1.75 1.80 1.85 1.87 1.83 1.79 1.76 1.71 1.62 1.57 1.56 1.53 1.50 1.47 1.43 1.40 1.42 1.46 1.49 1.48 1.46 1.44 1.41 1.41 1.43 1.46 1.48 1.51 1.52 1.54 1.55 1.57 1.59
0.99 0.97 0.99 1.00 1.00 1.06 1.09 1.12 1.15 1.19 1.19 1.21 1.17 1.13 1.14 1.20 1.21 1.19 1.19 1.25 1.28 1.29 1.25 1.13 1.14 1.22 1.23 1.23 1.27 1.41 1.51 1.54 1.48 1.46 1.35 1.36 1.42 1.44 1.51 1.55 1.56 1.56 1.63 1.71 1.64 1.58 1.65 1.78 1.71 1.61 1.64 1.68 1.74 1.78 1.83 1.85 1.84 1.79 1.75 1.68 1.62 1.58 1.54 1.50 1.48 1.46 1.43 1.39 1.39 1.43 1.46 1.49 1.49 1.47 1.46 1.43 1.42 1.43 1.46 1.49 1.50 1.52 1.53 1.55 1.59
0.91 0.90 0.95 0.99 1.01 1.02 1.00 1.01 1.04 1.06 1.07 1.09 1.14 1.19 1.21 1.23 1.21 1.23 1.24 1.22 1.19 1.13 1.15 1.30 1.32 1.18 1.09 1.16 1.22 1.27 1.38 1.46 1.49 1.56 1.54 1.39 1.46 1.48 1.54 1.67 1.60 1.55 1.68 1.71 1.65 1.63 1.74 1.85 1.73 1.64 1.63 1.63 1.69 1.75 1.79 1.84 1.81 1.80 1.73 1.69 1.66 1.61 1.56 1.53 1.53 1.53 1.49 1.45 1.41 1.40 1.42 1.46 1.49 1.48 1.47 1.46 1.44 1.44 1.46 1.47 1.49 1.50 1.52 1.55 1.57
0.89 0.91 0.94 0.98 0.99 0.99 1.00 1.01 1.05 1.04 1.05 1.06 1.06 1.08 1.10 1.10 1.14 1.17 1.15 1.18 1.19 1.18 1.21 1.27 1.38 1.33 1.32 1.28 1.18 1.20 1.34 1.48 1.51 1.53 1.54 1.48 1.41 1.42 1.44 1.57 1.66 1.59 1.66 1.68 1.68 1.56 1.68 1.86 1.78 1.64 1.72 1.66 1.64 1.73 1.80 1.80 1.83 1.84 1.79 1.73 1.71 1.66 1.60 1.55 1.52 1.54 1.56 1.55 1.50 1.45 1.43 1.44 1.47 1.48 1.48 1.46 1.44 1.46 1.48 1.49 1.49 1.50 1.52 1.55 1.58
0.90 0.93 0.99 1.00 1.00 1.02 1.03 1.05 1.07 1.08 1.08 1.10 1.11 1.11 1.12 1.10 1.12 1.15 1.15 1.16 1.16 1.21 1.31 1.37 1.26 1.32 1.27 1.26 1.30 1.26 1.22 1.33 1.48 1.40 1.44 1.46 1.50 1.50 1.52 1.44 1.47 1.53 1.50 1.64 1.60 1.52 1.54 1.71 1.64 1.54 1.67 1.63 1.59 1.67 1.77 1.80 1.81 1.80 1.75 1.70 1.68 1.66 1.68 1.65 1.59 1.59 1.60 1.60 1.58 1.53 1.48 1.46 1.46 1.47 1.48 1.46 1.46 1.48 1.50 1.50 1.50 1.50 1.51 1.52 1.56
0.97 0.97 1.01 1.04 1.04 1.04 1.06 1.08 1.09 1.08 1.08 1.10 1.12 1.13 1.14 1.14 1.15 1.18 1.13 1.16 1.14 1.17 1.19 1.22 1.25 1.20 1.20 1.28 1.35 1.38 1.34 1.38 1.42 1.39 1.40 1.47 1.52 1.55 1.57 1.51 1.37 1.28 1.38 1.47 1.49 1.50 1.63 1.48 1.49 1.59 1.64 1.65 1.66 1.64 1.74 1.79 1.78 1.79 1.74 1.74 1.71 1.70 1.72 1.71 1.65 1.62 1.62 1.62 1.60 1.56 1.52 1.49 1.48 1.49 1.48 1.49 1.49 1.49 1.50 1.52 1.53 1.54 1.54 1.53 1.54
0.97 0.99 1.00 1.03 1.05 1.05 1.05 1.06 1.07 1.07 1.07 1.08 1.11 1.12 1.13 1.15 1.15 1.18 1.19 1.21 1.15 1.08 1.08 1.08 1.08 1.18 1.24 1.18 1.21 1.22 1.31 1.46 1.47 1.43 1.42 1.43 1.46 1.49 1.55 1.50 1.49 1.33 1.25 1.30 1.38 1.37 1.43 1.48 1.34 1.51 1.67 1.62 1.63 1.69 1.74 1.77 1.79 1.82 1.79 1.74 1.71 1.74 1.69 1.70 1.71 1.65 1.64 1.61 1.58 1.56 1.54 1.55 1.56 1.54 1.52 1.51 1.50 1.49 1.50 1.53 1.56 1.58 1.59 1.59 1.58
0.99 0.99 0.99 1.00 1.01 1.04 1.04 1.05 1.07 1.06 1.05 1.05 1.08 1.10 1.12 1.13 1.14 1.17 1.23 1.27 1.29 1.25 1.21 1.18 1.18 1.22 1.21 1.16 1.15 1.13 1.24 1.38 1.46 1.49 1.48 1.47 1.39 1.43 1.50 1.56 1.62 1.49 1.36 1.31 1.34 1.36 1.33 1.44 1.41 1.51 1.74 1.68 1.60 1.68 1.72 1.78 1.82 1.84 1.86 1.78 1.74 1.72 1.68 1.72 1.75 1.68 1.67 1.65 1.62 1.60 1.59 1.60 1.59 1.56 1.53 1.52 1.50 1.50 1.52 1.55 1.59 1.59 1.59 1.59 1.58
0.96 0.98 0.98 0.98 0.98 1.00 1.02 1.03 1.05 1.03 1.03 1.04 1.08 1.12 1.14 1.09 1.14 1.15 1.18 1.20 1.18 1.16 1.18 1.18 1.20 1.25 1.23 1.17 1.18 1.17 1.19 1.25 1.45 1.45 1.41 1.42 1.46 1.46 1.46 1.54 1.57 1.64 1.54 1.37 1.29 1.31 1.45 1.34 1.42 1.62 1.76 1.74 1.70 1.72 1.71 1.71 1.72 1.78 1.78 1.76 1.75 1.69 1.65 1.74 1.77 1.67 1.65 1.67 1.64 1.59 1.58 1.58 1.57 1.56 1.55 1.53 1.52 1.54 1.57 1.58 1.57 1.57 1.57 1.56 1.56
0.99 0.98 0.99 0.97 0.97 0.97 0.99 1.01 1.03 1.03 1.04 1.04 1.09 1.12 1.13 1.14 1.18 1.14 1.15 1.16 1.18 1.21 1.19 1.20 1.20 1.20 1.21 1.18 1.14 1.21 1.32 1.30 1.24 1.33 1.46 1.48 1.43 1.42 1.41 1.44 1.55 1.63 1.63 1.43 1.25 1.26 1.42 1.39 1.47 1.52 1.71 1.73 1.79 1.69 1.72 1.67 1.73 1.76 1.76 1.78 1.79 1.71 1.72 1.79 1.76 1.62 1.57 1.64 1.63 1.58 1.55 1.55 1.56 1.55 1.56 1.57 1.59 1.60 1.60 1.60 1.58 1.57 1.55 1.55 1.56
0.98 0.98 0.96 0.96 0.99 1.01 1.03 1.05 1.02 1.00 1.09 1.04 1.05 1.10 1.15 1.18 1.16 1.14 1.18 1.24 1.26 1.23 1.22 1.24 1.26 1.26 1.22 1.18 1.17 1.17 1.18 1.27 1.34 1.31 1.30 1.33 1.40 1.44 1.41 1.43 1.49 1.62 1.56 1.33 1.21 1.23 1.32 1.54 1.57 1.57 1.58 1.56 1.58 1.66 1.59 1.62 1.63 1.67 1.72 1.73 1.71 1.70 1.72 1.75 1.78 1.67 1.66 1.66 1.62 1.59 1.57 1.56 1.58 1.60 1.62 1.62 1.62 1.62 1.60 1.58 1.56 1.56 1.56 1.58 1.60
1.01 0.97 0.97 0.99 1.01 1.03 1.04 1.07 1.08 1.07 1.07 1.07 1.07 1.07 1.07 1.10 1.13 1.21 1.25 1.20 1.18 1.22 1.24 1.21 1.25 1.25 1.24 1.22 1.21 1.21 1.23 1.18 1.17 1.28 1.36 1.29 1.33 1.36 1.31 1.30 1.33 1.52 1.63 1.37 1.20 1.21 1.24 1.48 1.60 1.64 1.46 1.48 1.48 1.54 1.51 1.61 1.62 1.57 1.61 1.76 1.77 1.74 1.69 1.72 1.69 1.73 1.70 1.67 1.64 1.63 1.62 1.60 1.60 1.62 1.63 1.62 1.60 1.58 1.57 1.57 1.57 1.57 1.57 1.58 1.59
1.01 1.00 0.98 0.97 0.98 1.02 1.04 1.06 1.10 1.12 1.11 1.06 1.08 1.06 1.06 1.10 1.14 1.21 1.23 1.22 1.19 1.18 1.19 1.20 1.21 1.23 1.21 1.20 1.22 1.26 1.27 1.23 1.19 1.17 1.26 1.35 1.33 1.29 1.25 1.31 1.35 1.49 1.70 1.53 1.26 1.24 1.34 1.44 1.60 1.56 1.43 1.41 1.47 1.46 1.44 1.57 1.65 1.65 1.62 1.76 1.78 1.70 1.64 1.68 1.69 1.68 1.66 1.68 1.65 1.62 1.63 1.62 1.59 1.57 1.56 1.55 1.55 1.56 1.56 1.55 1.54 1.53 1.53 1.54 1.56
1.00 1.03 1.04 1.01 1.01 1.03 1.05 1.09 1.12 1.13 1.13 1.09 1.07 1.06 1.07 1.09 1.14 1.18 1.19 1.20 1.18 1.20 1.19 1.20 1.24 1.26 1.25 1.22 1.21 1.26 1.30 1.24 1.20 1.24 1.30 1.34 1.40 1.34 1.29 1.29 1.29 1.49 1.65 1.61 1.44 1.29 1.39 1.41 1.49 1.46 1.37 1.36 1.50 1.55 1.53 1.55 1.57 1.59 1.65 1.69 1.80 1.74 1.60 1.55 1.59 1.63 1.66 1.68 1.73 1.67 1.61 1.58 1.55 1.54 1.55 1.58 1.59 1.58 1.57 1.56 1.56 1.56 1.57 1.59 1.59
1.01 1.00 0.98 1.00 1.03 1.03 1.04 1.07 1.10 1.11 1.10 1.08 1.05 1.05 1.07 1.11 1.10 1.13 1.19 1.20 1.20 1.18 1.20 1.22 1.25 1.26 1.27 1.27 1.26 1.26 1.29 1.29 1.25 1.22 1.29 1.26 1.37 1.36 1.32 1.32 1.25 1.36 1.58 1.54 1.34 1.30 1.29 1.30 1.34 1.44 1.42 1.37 1.49 1.56 1.53 1.49 1.53 1.54 1.71 1.77 1.75 1.72 1.63 1.54 1.59 1.61 1.64 1.73 1.82 1.73 1.66 1.62 1.60 1.62 1.62 1.60 1.58 1.58 1.58 1.58 1.59 1.60 1.61 1.62 1.61
0.88 0.90 0.91 0.95 1.02 1.05 1.05 1.06 1.08 1.09 1.10 1.10 1.11 1.10 1.09 1.08 1.09 1.11 1.11 1.09 1.10 1.15 1.20 1.21 1.23 1.27 1.28 1.31 1.31 1.29 1.30 1.30 1.29 1.28 1.28 1.26 1.30 1.30 1.28 1.29 1.25 1.33 1.49 1.51 1.39 1.24 1.30 1.31 1.33 1.37 1.34 1.28 1.42 1.46 1.44 1.42 1.39 1.47 1.55 1.61 1.66 1.77 1.74 1.65 1.61 1.67 1.70 1.75 1.81 1.85 1.79 1.70 1.69 1.68 1.65 1.62 1.62 1.63 1.64 1.65 1.64 1.63 1.60 1.59 1.58
0.89 0.92 0.92 0.90 0.94 1.01 1.08 1.08 1.05 1.06 1.10 1.09 1.09 1.11 1.11 1.08 1.07 1.06 1.06 1.04 1.06 1.11 1.13 1.20 1.23 1.27 1.31 1.35 1.36 1.35 1.35 1.37 1.35 1.33 1.29 1.25 1.25 1.25 1.34 1.37 1.29 1.28 1.46 1.50 1.33 1.21 1.27 1.31 1.36 1.41 1.32 1.35 1.41 1.35 1.37 1.44 1.44 1.40 1.42 1.49 1.53 1.71 1.73 1.59 1.56 1.63 1.69 1.67 1.74 1.81 1.82 1.75 1.72 1.69 1.65 1.64 1.65 1.65 1.65 1.64 1.62 1.60 1.58 1.56 1.55
0.86 0.90 0.92 0.88 0.89 0.90 0.94 1.01 1.05 1.07 1.10 1.10 1.13 1.14 1.11 1.09 1.07 1.05 1.03 0.99 1.01 1.04 1.13 1.21 1.21 1.24 1.30 1.37 1.41 1.41 1.43 1.43 1.40 1.42 1.39 1.28 1.31 1.28 1.39 1.45 1.38 1.25 1.31 1.49 1.36 1.21 1.22 1.26 1.28 1.32 1.34 1.35 1.46 1.40 1.39 1.44 1.41 1.40 1.44 1.49 1.41 1.42 1.53 1.60 1.64 1.57 1.56 1.58 1.60 1.68 1.82 1.81 1.79 1.74 1.69 1.67 1.66 1.64 1.62 1.60 1.59 1.58 1.56 1.55 1.53
0.85 0.87 0.96 0.94 0.89 0.88 0.93 1.02 1.10 1.11 1.09 1.11 1.14 1.12 1.07 1.06 1.06 1.03 0.99 0.97 1.00 1.05 1.15 1.19 1.17 1.22 1.28 1.37 1.44 1.44 1.45 1.44 1.43 1.44 1.45 1.47 1.41 1.36 1.41 1.47 1.48 1.35 1.33 1.49 1.35 1.20 1.19 1.24 1.28 1.35 1.32 1.34 1.45 1.39 1.26 1.33 1.31 1.29 1.41 1.59 1.53 1.50 1.53 1.60 1.67 1.66 1.57 1.57 1.65 1.68 1.74 1.80 1.74 1.70 1.67 1.62 1.62 1.61 1.61 1.60 1.60 1.58 1.56 1.53 1.53
0.89 0.91 0.94 0.97 0.95 0.95 0.97 1.02 1.09 1.11 1.11 1.15 1.14 1.08 1.05 1.04 1.04 1.03 0.97 0.96 1.02 1.09 1.14 1.12 1.14 1.22 1.29 1.36 1.43 1.44 1.44 1.45 1.42 1.44 1.46 1.46 1.45 1.43 1.44 1.47 1.52 1.45 1.36 1.36 1.25 1.21 1.20 1.18 1.20 1.25 1.28 1.30 1.38 1.40 1.32 1.32 1.41 1.40 1.42 1.49 1.43 1.46 1.46 1.51 1.58 1.75 1.71 1.57 1.48 1.50 1.66 1.77 1.69 1.67 1.74 1.65 1.71 1.68 1.65 1.63 1.57 1.55 1.52 1.51 1.52
0.95 0.99 0.98 0.94 0.96 0.97 0.95 1.00 1.03 1.06 1.11 1.15 1.10 1.05 1.04 1.06 1.06 1.00 0.92 0.94 1.05 1.12 1.12 1.12 1.15 1.21 1.28 1.36 1.39 1.40 1.40 1.39 1.41 1.43 1.41 1.40 1.42 1.44 1.46 1.51 1.61 1.54 1.40 1.30 1.34 1.29 1.28 1.24 1.24 1.23 1.19 1.21 1.30 1.36 1.35 1.35 1.31 1.30 1.38 1.48 1.44 1.47 1.40 1.31 1.24 1.37 1.65 1.73 1.60 1.43 1.49 1.71 1.81 1.74 1.79 1.72 1.70 1.68 1.65 1.62 1.61 1.57 1.55 1.53 1.54
0.89 0.94 0.93 0.96 0.97 0.98 1.01 1.00 0.99 1.04 1.06 1.09 1.05 1.03 1.02 1.04 1.03 0.95 0.90 0.92 1.03 1.09 1.12 1.11 1.16 1.21 1.26 1.31 1.33 1.36 1.36 1.36 1.38 1.40 1.40 1.41 1.41 1.43 1.45 1.48 1.52 1.55 1.55 1.48 1.43 1.39 1.24 1.17 1.21 1.24 1.24 1.25 1.28 1.34 1.37 1.35 1.28 1.25 1.33 1.45 1.46 1.34 1.33 1.35 1.35 1.26 1.50 1.76 1.66 1.48 1.41 1.60 1.86 1.78 1.73 1.66 1.66 1.65 1.63 1.64 1.62 1.61 1.59 1.58 1.56
0.89 0.94 0.96 0.96 0.96 0.97 0.98 0.97 0.94 1.00 1.02 1.06 1.01 0.98 0.98 0.99 0.96 0.89 0.85 0.91 0.99 1.06 1.11 1.13 1.15 1.21 1.25 1.28 1.31 1.32 1.31 1.32 1.34 1.37 1.38 1.39 1.41 1.42 1.45 1.47 1.47 1.47 1.45 1.46 1.52 1.56 1.50 1.27 1.18 1.23 1.30 1.33 1.34 1.40 1.45 1.39 1.35 1.26 1.34 1.46 1.51 1.46 1.41 1.36 1.38 1.44 1.64 1.86 1.72 1.53 1.44 1.67 1.88 1.69 1.45 1.56 1.60 1.62 1.64 1.62 1.62 1.62 1.62 1.60 1.58
0.87 0.88 0.92 0.91 0.90 0.90 0.90 0.90 0.94 0.98 1.05 1.11 1.02 0.98 0.93 0.92 0.89 0.83 0.81 0.86 0.95 1.04 1.11 1.15 1.14 1.20 1.23 1.26 1.24 1.25 1.27 1.27 1.30 1.31 1.33 1.37 1.39 1.40 1.42 1.45 1.46 1.47 1.45 1.45 1.46 1.48 1.47 1.34 1.28 1.27 1.37 1.43 1.42 1.46 1.52 1.48 1.36 1.30 1.35 1.42 1.57 1.48 1.40 1.39 1.50 1.59 1.75 1.76 1.62 1.53 1.42 1.51 1.71 1.54 1.45 1.53 1.59 1.61 1.65 1.68 1.64 1.65 1.64 1.61 1.59
0.87 0.89 0.90 0.89 0.90 0.91 0.93 0.93 0.91 0.90 0.94 0.98 0.95 0.92 0.89 0.89 0.86 0.83 0.83 0.89 0.95 1.01 1.08 1.12 1.15 1.16 1.18 1.23 1.24 1.22 1.23 1.24 1.27 1.30 1.33 1.35 1.37 1.39 1.40 1.40 1.43 1.46 1.48 1.47 1.44 1.41 1.36 1.30 1.28 1.38 1.49 1.60 1.61 1.53 1.50 1.56 1.47 1.51 1.55 1.52 1.62 1.54 1.49 1.53 1.60 1.70 1.72 1.75 1.71 1.56 1.32 1.41 1.60 1.49 1.47 1.54 1.63 1.64 1.69 1.69 1.68 1.69 1.66 1.63 1.63
0.91 0.94 0.96 0.98 1.00 1.00 0.99 0.97 0.93 0.91 0.92 0.93 0.94 0.94 0.91 0.90 0.89 0.86 0.86 0.86 0.91 0.99 1.06 1.10 1.16 1.15 1.16 1.20 1.21 1.17 1.18 1.24 1.26 1.29 1.33 1.36 1.35 1.35 1.36 1.39 1.40 1.43 1.46 1.50 1.56 1.57 1.47 1.38 1.35 1.41 1.54 1.69 1.71 1.65 1.62 1.65 1.69 1.69 1.61 1.69 1.64 1.54 1.46 1.45 1.47 1.59 1.61 1.86 1.81 1.59 1.43 1.40 1.46 1.44 1.48 1.59 1.62 1.61 1.69 1.71 1.74 1.73 1.69 1.68 1.67
0.88 0.88 0.89 0.89 0.95 1.04 1.09 1.13 1.04 1.02 1.00 0.99 0.96 0.95 0.92 0.90 0.87 0.86 0.83 0.84 0.91 1.00 1.04 1.08 1.12 1.17 1.16 1.16 1.15 1.12 1.18 1.25 1.26 1.27 1.30 1.34 1.32 1.32 1.34 1.36 1.39 1.40 1.40 1.51 1.54 1.55 1.57 1.54 1.48 1.49 1.54 1.60 1.62 1.64 1.68 1.69 1.72 1.73 1.63 1.51 1.43 1.49 1.36 1.32 1.42 1.50 1.54 1.62 1.69 1.63 1.47 1.34 1.40 1.48 1.43 1.53 1.58 1.60 1.63 1.69 1.81 1.77 1.75 1.73 1.71
0.96 0.97 0.94 0.90 0.95 1.00 0.95 0.94 1.04 1.11 1.03 1.04 1.03 0.99 0.96 0.92 0.90 0.87 0.86 0.88 0.92 0.99 1.03 1.06 1.09 1.12 1.16 1.17 1.14 1.13 1.19 1.25 1.28 1.24 1.27 1.32 1.29 1.30 1.34 1.36 1.34 1.35 1.40 1.48 1.54 1.53 1.56 1.60 1.59 1.55 1.55 1.59 1.63 1.62 1.69 1.72 1.71 1.71 1.64 1.46 1.45 1.44 1.39 1.41 1.35 1.45 1.56 1.59 1.59 1.76 1.57 1.39 1.48 1.52 1.39 1.45 1.56 1.59 1.64 1.70 1.79 1.78 1.78 1.75 1.74
1.02 1.09 1.02 0.96 1.05 1.11 1.07 1.01 0.98 0.98 1.05 1.13 1.08 1.03 0.99 0.97 0.96 0.96 0.96 0.92 0.91 0.95 0.97 0.97 1.02 1.08 1.13 1.17 1.15 1.17 1.22 1.25 1.29 1.23 1.25 1.30 1.29 1.28 1.32 1.35 1.33 1.32 1.40 1.49 1.51 1.51 1.53 1.54 1.57 1.56 1.50 1.51 1.60 1.66 1.67 1.69 1.69 1.69 1.66 1.63 1.62 1.49 1.39 1.43 1.48 1.48 1.45 1.50 1.69 1.90 1.53 1.44 1.41 1.52 1.41 1.35 1.34 1.55 1.66 1.74 1.79 1.81 1.81 1.80 1.77
Wind_Speed
13 13 13 13 14 14 13 13 13 13 12 12 12 13 13 14 14 14 14 14 14 13 13 12 11 12 13 14 14 14 14 14 14 14 14 14 14 14 15 15 15 14 14 14 14 13 13 13 13 13 13 13 13 12 12 11 11 10 10 10 9 9 9 9 9 8 8 7 7 6 5 5 4 4 4 4 4 3 2 2 2 1 1 1 1
14 14 14 14 14 15 15 15 14 14 13 13 13 14 14 14 14 15 15 15 15 14 14 14 13 12 13 14 15 15 15 15 15 15 15 15 15 15 15 16 16 16 15 15 15 15 15 14 14 14 14 14 14 13 13 12 12 11 11 10 10 10 10 10 9 9 8 8 7 7 6 6 5 5 5 4 4 4 3 3 2 2 2 1 1
14 14 14 14 14 14 15 15 15 15 15 15 15 15 15 15 14 15 15 15 16 16 16 16 15 14 14 15 15 16 16 16 16 16 16 15 16 16 16 16 17 17 17 17 16 16 16 16 15 15 15 15 15 14 14 13 13 12 12 11 11 11 10 10 10 9 9 8 8 8 7 7 6 6 5 5 5 4 4 4 3 3 2 2 2
15 15 14 14 14 14 15 15 16 16 16 16 16 16 16 16 15 15 16 16 17 17 18 18 17 16 16 16 16 16 17 17 17 17 17 17 17 17 17 17 18 18 19 18 18 18 18 17 17 16 16 16 16 16 15 15 14 13 13 12 12 12 11 11 10 10 10 9 9 8 8 8 7 7 6 6 5 5 5 4 4 3 3 2 2
17 16 15 16 16 17 17 16 17 17 17 17 17 17 17 16 16 16 16 17 17 18 19 20 20 19 18 17 17 17 17 18 19 19 19 18 18 18 18 18 18 19 20 20 20 19 19 19 19 18 18 18 17 17 17 16 15 15 14 14 13 13 12 12 11 11 10 10 9 9 8 8 8 8 7 7 6 6 6 5 5 4 4 3 3
18 18 19 20 20 20 20 19 19 19 19 19 18 18 18 18 18 17 17 17 18 18 19 20 21 21 20 19 18 18 17 18 19 20 20 20 20 20 19 19 19 19 20 21 21 21 21 21 20 20 20 19 19 18 18 17 17 16 15 15 14 14 13 13 12 12 11 11 10 10 9 9 9 8 8 8 7 7 7 6 6 5 5 4 4
21 23 24 24 24 25 24 23 22 21 21 21 21 21 21 21 21 21 20 19 19 19 20 20 22 22 22 21 20 19 18 18 19 20 21 21 21 21 21 20 20 20 20 21 22 22 23 22 22 22 21 21 21 20 20 19 18 18 17 16 16 15 15 14 13 13 12 12 11 11 10 10 10 9 9 9 8 8 8 7 7 6 6 5 5
24 25 26 26 26 27 26 25 24 24 23 24 25 24 23 23 24 25 23 22 21 21 21 21 22 23 23 23 22 21 20 19 19 19 20 21 22 22 22 22 22 21 21 21 22 22 23 24 24 23 23 22 22 22 21 21 20 19 19 18 17 17 16 15 15 14 13 13 12 12 12 11 11 10 10 10 9 9 9 8 8 8 7 7 6
24 23 24 24 26 27 27 26 26 26 26 27 27 26 26 26 26 26 25 24 24 23 23 23 23 23 24 24 24 24 22 21 20 20 20 21 22 22 23 23 23 23 23 23 23 23 24 25 25 25 25 24 24 23 23 22 22 21 20 20 19 18 18 17 16 15 14 14 13 13 13 12 12 11 11 11 10 10 9 9 9 8 8 8 8
22 23 23 23 24 25 26 26 26 26 27 27 26 27 28 28 27 26 26 25 25 25 25 24 24 24 25 25 25 26 25 24 22 21 21 21 22 22 23 23 23 24 24 24 24 24 24 25 26 26 26 26 25 25 24 24 24 23 22 21 20 20 19 18 18 17 16 15 14 14 13 13 13 12 12 12 11 11 10 10 10 9 9 9 9
20 21 22 23 24 24 24 25 26 27 27 27 27 27 28 29 30 29 29 29 28 28 28 27 26 26 26 26 27 27 27 26 25 23 22 22 22 23 23 23 24 24 24 25 25 25 25 25 26 26 27 27 27 26 26 26 25 25 24 23 22 21 21 20 19 18 17 16 16 15 14 14 14 14 13 13 13 12 11 11 10 10 10 10 10
20 20 21 22 23 24 24 25 26 26 28 28 28 28 29 30 30 31 31 31 30 30 30 30 29 28 28 28 28 28 28 28 27 26 25 24 23 24 24 23 24 24 24 25 25 26 26 26 27 27 27 27 28 28 27 27 27 26 25 25 24 23 22 21 20 20 19 18 17 16 16 15 15 15 15 14 14 13 13 12 12 11 11 11 10
21 21 22 23 24 24 24 25 25 26 28 29 29 29 29 29 29 29 30 31 31 30 30 30 30 29 29 28 29 29 29 29 29 29 28 26 25 25 25 25 24 24 24 25 26 27 27 27 28 28 27 27 28 28 28 28 28 28 27 26 26 25 24 23 22 21 20 19 19 18 17 17 16 16 16 16 15 15 14 14 13 13 12 12 11
22 22 23 24 24 24 25 25 25 26 27 28 28 28 28 28 28 28 29 30 30 30 29 29 29 29 29 29 28 29 30 30 30 30 29 29 28 27 27 26 26 25 25 25 26 27 28 28 28 28 29 28 29 29 29 29 29 29 29 28 27 26 26 25 24 23 22 21 21 20 19 19 18 17 17 17 16 16 16 15 15 14 14 13 13
23 23 24 24 24 25 25 25 25 25 26 26 26 26 27 28 28 27 27 28 28 29 29 29 29 29 29 29 28 28 29 30 31 31 31 30 30 29 28 28 28 27 26 26 25 26 28 29 29 29 30 30 30 30 30 30 30 30 30 30 29 28 27 26 26 25 24 23 22 21 21 20 19 19 18 18 18 17 17 17 16 16 15 14 14
24 24 24 25 25 25 25 26 26 26 25 26 26 26 27 27 27 27 27 27 27 28 28 29 29 29 28 28 28 28 28 28 30 31 31 31 31 31 29 29 29 29 28 27 26 26 27 28 30 30 31 31 31 31 31 31 31 31 31 31 31 30 29 28 27 26 25 24 23 23 22 21 20 20 19 19 19 18 18 18 17 17 16 16 15
24 24 24 25 25 25 25 26 26 26 26 26 26 26 26 26 27 27 27 27 27 27 28 28 29 29 29 28 27 28 28 28 28 29 29 30 31 31 30 30 30 30 29 29 29 28 28 28 29 31 32 32 32 32 32 32 32 32 32 32 32 31 31 30 29 28 27 26 25 24 23 23 22 21 20 20 20 19 19 19 19 18 18 17 17
23 24 24 24 25 25 25 26 26 26 26 26 26 26 26 26 26 27 27 27 27 27 28 28 29 29 30 30 30 30 29 28 28 28 29 29 30 30 30 30 30 30 30 31 31 30 29 29 29 30 31 32 33 33 33 33 33 33 33 33 32 32 32 31 30 29 28 27 26 26 25 24 23 23 22 21 21 20 20 20 19 19 19 18 18
22 23 23 24 24 25 25 26 26 26 26 26 26 26 26 26 26 26 26 26 27 27 27 28 29 29 30 30 31 31 31 30 29 29 29 30 30 30 30 31 31 31 31 31 31 31 30 30 29 30 31 32 33 33 34 34 34 34 34 34 34 33 33 32 32 31 30 29 28 27 26 26 25 24 23 23 22 22 21 21 21 20 20 20 19
22 23 23 23 24 24 25 25 26 26 25 26 26 26 26 26 26 27 27 27 27 27 27 27 28 29 30 31 31 31 31 32 32 33 33 32 32 31 31 31 31 31 30 31 31 31 31 30 29 29 30 31 32 33 34 34 34 35 35 36 35 35 34 34 33 32 31 31 30 29 28 27 26 26 25 24 24 23 23 22 22 22 22 21 21
22 22 23 23 23 24 25 25 26 26 25 26 26 26 26 27 27 27 27 28 28 27 28 28 28 29 30 30 31 31 31 31 32 33 35 35 35 34 32 32 33 33 31 30 30 31 31 31 30 30 29 30 31 32 33 34 34 35 35 36 36 36 36 35 34 34 33 32 31 30 30 29 28 27 26 26 25 25 24 24 23 23 23 23 22
22 23 23 24 24 24 24 25 25 25 25 25 26 26 26 26 26 27 27 27 28 28 28 29 29 29 30 30 30 31 31 31 31 31 33 35 37 36 35 33 33 33 33 32 31 31 31 31 31 30 30 30 30 31 32 34 34 35 35 35 36 37 36 36 36 35 34 33 33 32 31 30 29 29 28 27 27 26 26 25 24 24 24 24 24
22 23 23 24 24 25 25 25 26 26 25 25 26 27 26 26 26 27 27 27 27 28 29 30 30 30 31 30 31 32 32 31 30 31 31 33 36 37 36 35 34 34 34 34 33 32 32 32 31 31 30 30 30 30 31 33 34 35 35 35 36 37 37 37 37 36 35 35 34 33 32 31 31 30 29 28 28 27 27 26 26 25 25 25 25
23 23 23 24 24 25 25 26 26 26 25 25 26 26 26 26 26 26 27 27 27 28 28 29 30 31 31 31 32 33 33 32 31 31 31 32 34 36 37 36 35 34 34 34 34 34 33 33 32 32 31 30 30 30 31 32 33 34 35 35 35 36 37 37 37 37 36 36 35 35 34 33 32 31 30 30 29 28 28 27 27 26 26 26 26
24 24 24 25 25 25 25 26 25 25 25 25 25 25 25 25 25 26 26 27 28 29 29 29 30 30 31 32 32 33 34 33 32 32 32 33 33 35 37 36 35 34 33 33 33 33 34 34 33 33 32 31 31 30 31 31 32 33 34 35 35 35 36 36 37 37 36 36 36 35 35 34 33 33 32 31 30 29 29 28 28 28 27 27 27
24 25 25 25 25 25 26 25 25 25 25 25 25 25 25 25 24 25 25 26 27 28 29 29 30 30 31 32 33 33 34 34 33 32 33 33 33 34 36 36 36 35 33 32 32 33 33 33 34 33 32 32 32 31 31 32 32 33 34 34 34 35 36 36 36 36 36 36 36 36 35 35 34 33 32 32 31 30 30 29 29 29 28 28 28
24 25 25 25 25 25 25 25 25 25 24 24 24 24 24 24 23 24 24 25 26 27 28 29 30 31 32 32 33 33 34 34 34 34 34 33 33 34 36 36 35 36 34 33 34 35 34 33 33 33 33 32 33 33 32 33 33 33 34 34 34 35 35 36 36 36 36 35 35 35 35 34 34 33 33 32 31 31 30 30 30 29 29 29 29
24 25 25 25 25 25 25 25 25 24 24 24 24 23 23 23 23 23 23 24 25 26 27 29 30 31 32 33 33 34 35 35 35 35 35 35 34 34 36 36 35 36 36 35 35 36 35 34 33 34 34 33 33 33 33 33 33 33 34 34 34 34 35 35 36 35 35 35 35 34 34 34 34 33 33 33 32 32 31 31 30 30 30 30 30
24 24 24 25 24 24 24 24 24 24 24 24 23 23 23 23 23 23 24 24 25 26 27 28 30 30 32 33 34 35 36 36 37 37 36 36 36 36 37 37 37 37 37 36 36 35 35 35 34 33 34 34 34 33 32 32 32 33 33 33 34 34 34 35 35 35 35 35 34 34 34 34 33 33 33 33 32 32 32 31 31 31 31 31 31
24 24 24 24 24 24 24 24 24 25 25 24 24 24 24 24 24 24 25 25 26 26 27 29 30 30 31 33 34 35 36 37 37 38 38 38 38 37 37 38 39 39 38 38 37 36 35 35 35 33 33 34 34 33 32 31 31 32 33 33 33 33 34 34 35 35 35 35 35 34 34 34 34 34 33 33 33 32 32 32 32 31 31 31 31
24 24 24 24 24 24 24 24 24 25 25 25 24 24 24 25 25 25 25 26 26 27 28 29 30 31 32 33 34 35 36 36 37 38 39 39 39 38 38 39 40 41 41 40 39 37 36 35 35 34 32 32 32 32 32 31 31 31 32 33 33 33 33 34 35 36 36 35 35 35 35 34 34 34 34 34 33 33 32 32 32 32 32 31 31
24 25 25 25 25 24 24 24 25 25 25 25 25 25 25 25 25 26 26 27 28 28 29 29 31 32 33 34 35 35 36 36 37 38 39 39 40 40 40 40 40 40 41 41 40 38 38 37 36 36 33 32 32 32 32 32 31 31 32 32 32 32 32 33 34 35 36 35 35 35 35 35 35 34 34 34 33 33 33 32 32 32 32 31 31
25 25 25 25 25 25 25 24 25 25 25 25 25 25 25 26 26 27 27 27 28 29 30 30 31 33 34 35 36 36 37 37 37 38 39 39 40 40 40 41 41 40 41 41 40 39 39 38 38 38 36 34 32 32 32 32 32 32 32 32 32 31 31 32 32 34 35 35 35 35 35 34 34 34 33 33 33 33 32 32 32 31 31 31 31
25 26 26 26 25 25 25 25 25 25 26 25 25 25 25 26 27 27 27 27 29 29 30 30 31 32 34 35 36 37 38 38 38 38 39 39 40 40 40 40 41 41 40 41 41 39 39 39 38 39 38 37 35 34 34 33 33 33 33 32 32 32 31 31 31 32 33 35 35 35 34 34 33 33 33 33 32 32 32 31 31 31 31 31 31
26 27 27 26 26 26 26 26 25 25 26 26 25 25 26 26 27 26 27 28 28 29 29 30 31 32 33 34 35 35 36 38 38 38 38 39 40 41 40 40 41 41 39 40 40 40 39 38 38 37 38 37 36 36 35 35 34 34 33 33 32 32 31 30 30 31 32 33 34 34 34 34 33 33 32 32 32 31 31 31 30 30 30 30 31
27 27 27 27 27 26 26 26 26 26 26 26 26 26 26 27 27 27 27 27 28 28 29 30 31 31 32 33 34 35 35 37 37 37 37 38 39 40 41 40 41 40 39 39 40 40 40 39 39 38 37 37 36 35 35 35 34 34 34 34 33 32 32 31 30 30 31 32 33 33 33 33 33 32 32 31 30 30 30 30 30 30 30 30 30
28 28 28 28 27 27 26 26 26 26 26 27 27 27 27 27 27 27 28 28 28 28 29 30 30 31 31 31 32 33 34 35 36 37 37 38 38 40 40 40 41 40 39 40 41 41 41 40 40 38 38 38 36 36 36 35 34 34 34 34 33 33 32 32 31 30 31 32 32 32 32 32 32 32 31 30 30 29 29 29 29 29 29 29 29
29 29 29 28 28 27 27 27 27 27 27 27 27 28 27 27 27 27 28 28 28 28 29 29 30 30 30 30 29 30 32 33 34 36 37 37 38 39 40 40 40 41 40 40 41 41 41 41 40 39 39 38 37 37 37 36 35 35 34 34 34 33 33 32 31 30 31 31 31 31 31 32 32 31 31 30 29 29 28 28 28 28 28 28 28
29 29 29 29 28 28 27 28 28 28 27 27 28 28 27 27 27 27 27 27 27 27 28 29 29 29 29 28 27 27 28 30 31 33 35 36 36 37 38 39 40 41 40 40 40 41 41 41 40 39 39 39 38 37 37 37 36 36 36 35 34 34 33 33 31 31 30 31 32 32 32 32 31 31 31 30 29 29 28 27 27 27 27 27 28
29 29 29 29 28 28 28 28 29 28 28 27 27 27 26 26 26 27 27 26 26 27 28 28 28 29 28 26 24 24 25 26 27 28 31 33 34 36 36 37 39 41 41 40 41 41 40 40 40 39 39 38 38 37 37 37 36 37 36 35 35 35 34 34 33 32 31 31 31 32 32 31 31 31 30 30 29 29 28 27 27 27 27 27 27
29 29 29 29 28 28 28 28 29 28 27 27 26 26 25 25 26 26 26 26 26 26 27 27 28 29 27 23 22 22 22 23 24 25 27 29 32 34 35 35 37 40 40 40 41 41 40 40 39 39 39 39 38 37 37 37 36 36 35 35 35 35 35 34 33 32 31 31 32 32 31 31 31 31 30 29 29 29 28 27 26 26 26 27 27
29 29 29 29 28 28 28 28 28 28 27 26 25 25 25 25 25 25 25 25 25 25 25 27 27 28 26 22 20 20 20 21 21 22 25 27 29 32 34 34 35 38 40 40 40 41 40 40 40 39 39 39 39 38 38 37 37 36 35 35 35 35 35 35 33 32 32 32 32 32 32 31 31 31 30 29 28 28 27 27 26 26 26 26 26
29 29 29 29 28 28 28 28 28 27 26 25 24 24 24 24 24 24 24 24 24 24 24 26 26 27 26 22 20 19 19 20 20 21 23 25 26 29 33 34 35 37 38 39 39 40 40 40 40 40 40 40 40 39 38 37 37 37 36 36 36 35 35 34 34 33 33 32 32 32 32 32 31 30 29 29 28 28 27 26 26 26 25 25 26
29 29 29 29 28 28 28 27 27 26 25 24 23 23 23 23 23 23 23 23 23 23 23 25 25 26 25 22 19 18 19 19 19 20 22 23 25 27 30 33 35 37 39 39 39 39 40 41 40 40 40 40 40 39 38 37 37 37 37 37 36 36 35 35 35 34 34 33 33 32 32 33 32 30 29 29 28 28 28 27 26 26 25 25 26
29 29 29 29 28 28 27 26 25 24 23 22 22 22 22 22 22 22 22 23 22 22 22 23 24 25 25 23 20 18 18 18 19 20 21 23 24 26 28 31 34 36 39 41 41 40 40 41 41 40 40 40 39 39 39 38 37 37 37 37 36 36 36 35 35 35 34 34 33 32 32 32 31 30 30 30 29 29 28 27 27 26 26 26 26
29 29 28 28 28 27 27 25 24 23 22 21 21 21 21 21 21 21 22 22 22 22 22 22 23 25 25 24 22 20 18 18 19 20 21 23 24 25 27 29 32 35 38 40 42 42 42 41 41 41 40 40 39 39 39 38 38 38 37 37 36 36 36 36 35 36 35 34 34 33 32 32 31 30 31 30 30 29 28 28 27 27 27 27 26
29 28 28 28 28 27 26 24 23 22 21 20 20 20 20 21 21 21 22 22 21 21 22 22 23 25 25 24 23 22 20 19 19 20 21 23 25 26 27 28 30 33 36 39 41 42 42 42 42 42 41 40 39 39 39 38 38 38 37 37 36 36 36 36 36 37 35 34 35 34 32 32 31 30 30 29 29 29 28 28 28 28 27 27 26
29 28 28 28 27 26 24 23 22 21 20 20 20 20 20 20 20 21 22 22 21 21 21 22 22 24 25 24 23 23 22 21 21 21 21 22 24 25 27 28 30 32 35 37 40 41 41 41 43 43 42 41 39 39 39 38 37 37 37 37 36 36 36 36 36 37 36 35 35 35 33 32 31 30 30 29 29 29 28 27 27 27 27 27 27
29 28 28 27 26 24 23 22 22 21 21 20 20 19 19 20 20 21 22 22 21 21 22 22 22 23 24 24 24 23 21 21 21 21 22 22 23 24 26 28 29 31 33 35 37 39 40 41 42 43 43 42 40 40 40 39 38 36 37 37 37 36 36 36 36 36 35 34 35 35 34 33 31 31 30 29 28 28 28 27 27 26 26 26 26
28 27 27 27 25 23 22 22 22 22 22 21 19 19 19 19 20 21 22 22 21 21 22 22 22 23 24 24 24 23 21 20 20 20 21 22 23 23 25 26 28 29 31 33 34 36 38 39 41 42 42 43 42 41 41 40 39 38 37 37 37 37 37 36 36 35 34 34 35 35 34 33 31 30 30 29 28 28 28 27 26 26 26 26 26
28 27 27 27 25 24 23 22 22 22 21 20 19 18 19 19 19 20 21 21 21 21 22 22 22 22 23 23 24 23 21 20 20 19 19 21 22 22 23 24 25 26 28 31 33 34 36 37 38 40 41 42 42 42 42 41 40 40 39 38 37 37 38 38 37 36 35 34 34 34 33 32 31 31 30 29 27 27 27 26 25 25 25 25 25
Wind_Direction
278 279 280 279 278 277 276 275 273 271 269 268 268 267 266 265 264 265 266 267 267 266 266 267 265 260 255 251 249 249 248 247 246 244 242 240 238 234 229 228 228 227 227 225 224 223 222 220 219 218 217 216 214 212 212 211 211 211 212 211 211 211 210 210 211 212 212 213 213 214 214 215 217 219 219 221 223 226 231 236 241 249 257 256 239
279 279 279 279 278 278 280 281 279 278 277 274 272 271 268 265 264 264 265 266 265 264 265 266 265 262 258 254 251 249 248 247 246 244 243 241 239 236 232 230 230 230 229 228 227 226 225 223 222 221 219 218 217 216 215 215 215 215 215 215 215 215 215 214 215 216 217 217 218 218 218 220 223 224 226 227 229 231 235 241 245 248 252 253 246
278 279 278 280 283 285 288 288 286 285 284 281 278 277 274 270 267 266 265 265 265 265 265 266 266 263 260 257 253 250 248 247 246 245 243 241 239 237 235 233 232 231 231 230 229 227 226 225 223 223 222 221 220 220 219 218 218 219 219 218 218 219 219 218 218 219 221 221 222 223 222 223 226 228 229 230 232 235 238 242 244 247 248 247 246
277 278 279 283 288 291 292 292 290 288 286 283 281 282 280 276 274 271 268 266 265 265 265 265 265 263 261 259 255 253 250 247 247 245 243 242 240 238 237 236 235 233 232 232 231 229 227 226 225 224 224 223 223 223 222 222 222 221 221 221 221 222 222 222 221 222 223 224 225 227 227 227 229 232 232 233 235 238 240 242 243 244 245 244 245
277 279 282 285 288 289 290 291 291 288 286 283 281 281 282 279 277 274 271 270 267 265 265 264 263 262 260 258 256 254 252 249 247 246 245 243 241 239 239 238 237 235 234 233 232 231 230 228 226 225 225 225 225 225 225 225 224 224 224 223 223 224 225 225 225 225 226 227 227 229 231 231 232 235 236 236 237 240 242 244 243 243 243 243 246
279 282 283 284 285 286 286 287 288 286 285 282 278 279 280 280 279 277 274 272 271 268 266 264 263 261 258 256 255 254 253 251 249 248 246 244 242 241 240 239 238 237 236 234 233 232 231 230 228 227 226 226 227 227 227 227 227 227 226 225 225 226 226 227 228 228 229 230 231 231 234 235 236 237 239 239 240 241 243 244 245 244 244 244 247
282 282 282 281 282 282 281 283 284 284 284 281 277 275 276 278 280 279 276 273 271 271 269 267 265 262 260 256 254 253 252 252 251 249 247 245 243 242 241 240 240 239 238 237 235 233 232 231 230 229 228 227 227 228 229 229 229 229 229 228 227 227 228 229 230 230 231 232 234 234 235 237 238 239 240 241 242 243 244 245 245 245 245 245 247
286 284 282 282 282 281 279 280 281 281 283 282 276 273 272 275 278 277 275 273 271 270 270 269 267 264 261 259 256 254 252 252 252 250 248 245 244 242 241 241 241 241 239 238 237 235 233 232 231 231 230 229 228 229 229 230 231 230 231 230 229 229 230 230 231 232 233 234 235 236 237 238 239 240 242 242 243 244 245 245 245 245 246 247 249
288 287 285 284 283 282 278 278 279 279 283 283 276 271 271 273 277 274 270 270 270 269 269 269 268 266 262 259 256 255 253 252 252 251 249 246 244 243 242 242 242 242 241 240 238 237 234 232 232 231 231 231 230 230 230 230 231 232 232 232 232 231 231 232 232 233 234 235 236 238 239 239 240 242 243 244 244 245 246 247 246 245 246 249 252
291 289 288 287 286 284 280 278 279 279 282 284 278 273 272 271 273 272 267 268 269 268 268 267 267 265 263 260 256 254 253 252 252 251 249 246 245 244 243 242 242 242 242 240 239 237 236 234 232 232 232 232 231 231 230 230 231 232 233 233 233 233 233 233 234 234 235 236 237 238 240 241 241 242 244 245 245 246 247 247 247 246 247 250 252
296 292 291 290 289 288 285 281 280 279 280 283 280 277 275 272 271 270 267 267 268 268 268 267 265 263 262 260 256 253 251 251 251 251 250 248 245 244 243 243 242 242 241 241 239 237 236 236 234 233 232 232 232 232 231 231 231 232 233 233 234 234 234 235 235 235 236 237 238 239 240 242 242 243 243 245 246 246 247 247 247 247 248 250 252
300 296 294 293 292 291 289 286 284 282 282 283 282 280 277 275 272 270 268 267 267 267 268 266 263 261 260 259 256 254 251 250 250 250 250 249 247 245 244 243 242 241 241 240 239 238 236 236 235 235 233 232 232 232 232 232 232 232 232 233 234 234 235 236 236 237 237 238 239 239 241 242 243 243 244 244 246 247 247 247 247 248 249 251 253
300 298 295 294 294 292 291 289 287 285 284 284 285 283 281 278 276 273 270 268 267 267 267 266 262 259 259 258 256 254 252 250 249 249 248 248 247 246 244 244 242 241 240 240 240 239 237 236 236 235 235 233 233 233 233 233 233 233 233 234 234 235 235 236 237 238 239 240 241 241 242 244 244 244 244 244 245 247 247 247 247 248 250 252 253
301 299 298 296 295 294 293 291 289 288 287 286 285 284 281 279 277 275 273 270 269 267 266 264 261 259 259 258 256 254 252 250 249 248 247 247 247 246 245 245 244 242 240 240 240 239 238 237 236 236 235 235 234 234 234 234 234 234 234 234 235 235 236 237 238 238 240 242 243 243 244 245 245 245 245 245 245 246 247 248 248 249 251 252 254
302 301 300 299 297 296 295 294 292 290 289 287 285 283 281 279 276 274 273 272 270 267 264 261 260 260 258 256 255 254 253 251 249 249 247 245 245 245 244 244 244 242 241 240 240 240 239 238 236 236 236 236 235 235 235 235 235 234 234 234 235 235 236 237 237 239 240 242 243 244 244 245 245 246 245 245 244 245 246 247 248 249 251 252 254
303 302 301 300 299 297 296 295 294 292 291 289 286 283 282 280 276 273 272 272 270 267 263 261 261 259 256 255 254 253 253 252 251 248 246 245 245 243 243 243 242 242 242 241 240 240 240 239 238 237 237 237 237 237 236 236 235 235 235 235 235 235 236 237 238 239 240 241 242 243 244 244 245 245 245 245 245 245 246 247 248 249 251 252 254
305 304 302 301 299 298 297 296 295 294 293 291 289 286 284 280 277 275 273 271 270 267 263 262 261 257 254 254 254 252 252 253 251 248 245 245 244 243 242 242 242 242 243 242 241 241 240 239 239 239 238 238 238 238 237 237 236 236 235 235 235 236 236 237 238 238 239 240 241 242 243 244 244 245 245 245 246 246 246 247 248 249 251 252 253
307 306 305 303 301 299 298 297 296 294 294 293 290 288 285 282 280 278 275 273 271 268 264 261 261 258 255 254 254 252 251 251 250 249 246 245 244 243 242 242 242 242 243 244 243 241 240 240 240 240 240 239 239 239 238 238 237 237 236 236 236 236 236 237 238 238 239 239 240 242 243 244 244 244 245 246 246 247 247 248 249 250 251 253 253
309 308 307 306 304 302 300 299 297 296 295 294 292 290 287 284 282 280 277 275 272 269 266 262 260 259 256 255 254 252 251 251 250 250 249 247 245 244 244 243 243 243 243 244 243 241 241 241 241 240 241 240 240 240 239 239 238 237 237 237 237 236 237 237 238 238 238 239 240 241 243 244 245 244 245 245 247 248 249 249 250 251 252 253 254
313 312 311 309 307 305 303 301 299 298 296 294 293 291 289 286 283 280 278 275 272 269 267 264 261 259 257 255 254 252 251 252 251 251 251 249 247 246 245 243 243 243 243 243 242 240 240 240 241 241 241 241 241 241 240 239 239 238 238 237 237 237 237 237 238 238 239 239 240 241 242 244 245 245 245 245 247 248 249 250 251 252 253 254 255
316 315 315 314 312 309 306 304 302 300 297 295 293 291 289 288 285 282 279 275 272 270 267 265 262 260 257 256 254 252 252 252 252 251 250 248 246 246 246 245 244 243 242 242 242 241 240 239 240 242 243 243 242 242 241 240 239 239 238 238 237 237 237 237 238 238 239 239 240 240 241 243 244 245 245 246 247 248 249 251 252 252 254 255 256
317 317 317 316 315 313 310 308 305 303 300 297 295 293 291 289 286 284 280 275 272 270 267 265 263 261 258 256 254 251 252 253 252 251 250 247 245 245 246 246 245 243 242 241 241 241 240 240 241 242 243 244 244 243 242 241 239 239 239 238 237 237 237 237 238 238 238 239 240 240 241 242 243 244 245 246 247 248 249 250 251 253 254 255 256
316 316 317 317 316 315 313 311 308 305 302 299 296 294 293 289 287 285 281 277 274 271 269 266 263 260 258 256 254 251 250 252 252 252 250 248 245 244 245 246 245 244 242 241 241 240 241 241 241 242 243 244 244 243 242 242 241 239 239 239 238 237 237 238 238 238 238 239 239 240 241 242 243 244 245 246 247 248 249 250 251 252 253 255 256
317 317 317 318 317 316 315 313 311 308 304 301 298 296 293 290 287 285 282 278 275 273 271 267 263 261 258 256 254 251 250 252 253 252 250 249 247 244 244 245 245 243 242 242 241 240 240 241 241 242 244 244 244 244 243 242 241 239 239 239 239 238 238 238 238 238 239 239 239 240 241 242 243 244 245 246 247 248 249 249 250 252 253 254 256
317 317 318 319 319 318 317 315 313 311 308 305 301 298 296 293 289 286 283 280 277 274 271 268 265 262 259 256 254 252 251 252 253 251 250 249 248 244 242 243 244 243 242 242 240 240 241 241 241 243 244 243 243 243 243 242 241 240 239 239 240 239 238 238 239 239 239 239 239 240 241 242 243 244 245 246 247 247 248 249 250 252 253 254 255
317 317 318 318 319 319 319 317 315 313 311 307 305 301 298 296 293 289 285 281 279 276 273 269 267 265 262 258 255 253 251 251 251 250 250 249 248 245 241 242 244 242 241 241 240 241 243 242 241 241 243 243 243 243 243 243 242 241 239 240 240 240 239 239 239 239 239 239 239 240 241 242 243 243 244 245 246 247 248 249 250 251 253 254 255
317 317 317 318 319 319 319 318 316 315 313 310 307 304 301 299 297 293 290 286 282 279 275 271 268 267 264 261 257 254 251 251 250 250 250 249 249 245 240 241 243 241 240 241 241 240 242 243 241 240 241 243 243 243 243 244 243 242 241 240 240 240 239 239 239 239 239 239 239 240 240 241 242 242 243 244 245 246 247 249 250 251 253 254 255
317 317 317 317 318 318 318 317 316 315 314 312 309 306 304 302 300 297 295 291 286 282 278 274 271 269 266 262 259 256 253 251 250 250 250 248 248 246 240 240 242 241 240 242 242 241 242 243 242 241 241 242 243 243 244 244 244 242 241 240 240 240 238 238 238 238 238 238 238 238 239 240 241 241 242 243 244 246 247 249 250 251 253 254 255
317 317 316 316 317 317 317 316 315 314 314 312 310 307 305 303 302 301 298 295 290 286 282 278 274 271 268 265 262 259 256 253 252 250 249 249 248 246 242 240 241 241 241 243 243 241 241 242 242 242 242 240 242 243 242 243 243 241 240 239 239 239 238 237 237 237 237 237 237 237 238 239 240 240 241 243 244 246 248 249 250 252 253 254 256
316 316 316 316 316 316 315 314 314 313 313 311 309 306 305 304 303 302 300 298 293 290 286 281 277 273 270 267 264 261 258 256 253 250 249 248 247 246 244 242 241 241 242 244 244 240 240 241 240 241 243 240 239 241 241 242 243 241 240 240 239 239 238 236 236 236 236 236 236 237 237 239 240 241 242 243 245 246 248 249 251 252 254 255 256
316 316 316 316 316 315 314 313 313 313 312 311 308 306 305 304 303 302 301 299 296 293 290 286 280 275 271 269 266 262 259 257 254 251 249 247 246 245 244 243 242 242 242 243 242 239 239 240 238 239 243 242 238 238 239 240 241 241 241 240 239 238 237 236 236 236 235 236 236 237 238 239 240 241 242 243 245 246 247 249 251 252 254 255 256
315 315 315 316 315 314 312 311 311 312 312 311 308 306 304 304 304 303 302 300 298 296 294 290 285 279 274 270 267 263 261 258 255 252 250 247 245 244 244 243 242 242 241 241 241 239 238 239 239 239 242 243 240 237 238 240 240 241 241 239 238 238 237 237 237 236 235 235 236 237 238 239 240 241 242 243 244 246 247 249 251 252 253 254 255
315 315 315 315 315 313 311 310 309 310 311 311 309 307 305 305 305 304 303 301 300 298 297 294 289 283 277 272 268 264 261 259 256 254 251 248 245 244 242 242 242 242 241 240 240 240 239 239 240 240 241 242 241 239 239 241 240 240 240 239 237 237 236 237 238 236 235 235 235 236 237 238 239 240 241 242 244 246 248 249 251 252 253 254 256
315 315 315 315 315 313 311 309 308 309 309 310 309 308 306 306 306 305 303 302 302 300 299 297 294 289 282 275 270 266 262 258 256 255 252 248 245 243 242 241 241 241 241 239 238 239 239 239 240 241 240 241 242 241 240 240 241 240 239 239 237 236 236 236 237 235 234 233 234 235 236 237 238 239 241 242 244 246 248 249 251 252 253 255 256
314 314 313 314 314 313 311 309 308 308 308 308 309 308 308 308 307 306 305 304 303 303 301 300 299 295 288 279 273 268 264 259 256 254 251 248 245 243 242 240 239 239 240 238 236 237 237 238 239 240 240 240 241 241 240 240 240 239 238 238 237 235 234 235 236 235 234 233 233 234 235 236 237 239 240 242 244 246 247 249 251 252 253 255 256
313 313 312 312 312 311 311 309 308 307 307 307 308 308 308 309 309 307 305 304 304 305 305 305 303 300 294 285 276 270 266 261 256 253 250 248 246 243 242 241 238 238 239 237 235 236 236 237 239 240 240 239 240 240 239 239 239 238 237 237 236 235 234 235 236 236 234 233 233 234 235 236 237 238 239 241 242 244 246 249 251 252 254 255 256
313 312 311 311 310 310 309 308 307 307 306 306 306 307 308 309 309 308 307 305 306 307 307 308 307 304 299 291 280 272 266 262 257 253 249 247 246 243 242 241 238 237 239 238 236 236 236 238 239 240 239 239 239 239 238 237 237 237 237 237 236 235 235 235 236 236 234 234 234 234 234 235 235 236 237 239 241 244 246 249 251 253 254 255 256
313 312 311 311 309 308 307 307 306 305 305 305 305 306 307 308 309 309 308 307 307 308 309 309 308 306 303 296 285 275 268 263 259 254 249 247 245 243 242 241 238 237 238 238 236 236 236 237 238 239 238 237 237 238 238 237 236 237 237 237 236 235 235 235 236 236 235 234 234 234 234 234 234 235 236 237 240 243 246 249 252 254 255 256 256
313 312 311 310 309 307 306 305 304 304 303 304 305 305 306 307 308 310 310 309 310 310 311 312 311 310 307 301 290 279 270 265 262 256 250 246 244 243 242 241 238 237 237 237 236 235 235 236 236 237 237 236 236 237 237 237 236 236 237 237 236 236 235 235 236 236 235 234 235 234 234 234 234 234 235 237 239 243 246 249 252 254 255 256 256
313 312 311 310 308 306 305 304 303 303 302 302 304 305 305 305 307 309 311 311 311 313 314 314 314 314 312 305 297 285 274 268 264 257 250 247 244 242 242 241 239 237 236 237 236 234 234 234 234 235 235 235 235 236 236 235 235 235 236 237 237 235 235 235 235 235 234 233 233 234 233 234 234 234 235 237 239 242 245 248 252 254 255 256 255
312 311 310 310 308 305 305 304 303 302 301 301 302 304 304 304 306 309 311 311 312 314 315 316 318 319 315 307 301 293 280 272 265 257 251 248 245 243 243 242 240 236 235 236 236 235 234 233 232 233 233 234 234 235 234 234 234 235 235 235 235 234 233 234 234 234 233 233 233 233 233 233 233 234 236 238 240 242 244 248 251 253 255 255 255
312 311 311 310 308 306 305 305 303 302 301 300 301 302 302 302 306 309 310 311 312 314 316 318 320 322 319 309 302 298 286 276 268 259 253 251 249 246 244 243 241 237 236 236 236 234 233 233 232 233 233 233 233 233 234 234 234 235 233 233 233 233 233 234 234 234 233 234 233 233 232 233 233 234 236 237 239 241 244 247 251 254 255 255 255
311 311 311 310 308 307 306 305 304 302 301 300 300 301 300 302 306 309 310 311 312 313 318 321 322 325 324 314 303 299 291 281 272 264 258 256 254 250 246 244 242 238 235 235 234 233 233 233 233 233 233 234 234 233 233 234 234 234 233 232 232 233 233 233 234 234 233 233 234 233 233 233 233 234 235 237 239 242 244 247 250 254 256 256 256
311 311 311 310 309 308 307 306 304 303 301 300 299 300 301 302 306 309 310 310 311 312 317 322 324 327 327 321 309 300 294 285 275 268 265 260 257 254 250 247 244 239 236 234 234 234 233 233 233 233 233 233 234 233 233 233 234 233 232 232 231 232 232 233 234 234 233 232 234 234 235 235 234 235 237 239 240 242 244 247 250 254 256 257 256
311 311 311 310 309 308 306 305 304 303 302 300 300 301 301 303 306 309 310 309 310 312 316 321 325 328 329 327 319 306 297 290 281 274 271 266 261 258 255 251 246 241 237 235 235 235 235 234 233 233 233 233 233 233 233 233 233 232 232 232 230 230 232 234 235 234 233 232 233 234 235 236 235 237 239 240 241 243 246 248 250 253 255 256 257
311 311 310 310 309 308 306 305 304 303 302 301 301 302 302 304 306 309 310 309 309 312 315 318 323 327 328 328 324 313 301 292 286 281 276 271 267 263 260 255 250 244 240 237 236 236 235 234 233 233 232 232 233 234 233 233 233 231 230 231 231 230 232 234 235 234 234 233 232 233 235 236 236 238 239 240 242 244 247 248 250 252 255 255 255
311 311 310 310 309 307 306 304 303 303 302 301 302 303 302 303 305 308 310 310 309 311 313 316 322 326 328 327 324 318 307 293 286 285 281 276 272 268 264 260 253 247 242 239 236 235 235 234 233 233 232 232 233 234 233 232 232 230 230 231 232 232 233 235 234 233 234 234 232 232 234 235 236 237 238 239 242 245 247 249 250 252 254 254 253
311 311 310 310 310 308 306 305 303 302 302 301 301 302 301 301 304 307 310 310 310 311 312 314 320 325 328 328 324 321 313 299 289 286 285 281 276 272 270 266 259 249 243 240 237 235 234 233 232 232 232 232 233 232 231 231 230 230 230 231 232 232 233 234 233 232 233 233 232 231 233 235 236 236 237 238 241 244 247 249 250 251 252 251 252
311 311 311 311 311 309 306 304 303 303 303 302 301 301 301 301 303 306 309 310 310 311 311 313 318 322 326 328 327 324 318 307 296 289 286 284 281 277 275 272 264 253 245 240 237 234 232 232 232 231 231 231 231 231 230 230 229 230 231 231 232 232 232 232 232 231 232 232 230 229 232 234 234 234 236 238 241 243 246 249 250 251 251 250 252
310 311 311 311 310 308 306 303 301 301 302 302 301 301 301 302 304 306 309 310 310 311 312 313 316 319 323 327 328 327 322 316 307 297 290 286 284 282 279 275 268 257 246 240 236 233 231 231 231 230 230 230 229 230 230 230 230 230 231 231 231 232 232 231 230 230 231 231 229 227 229 232 232 233 236 239 241 244 247 248 249 250 251 251 251
309 309 309 308 307 306 305 304 302 301 301 300 300 301 302 303 305 307 309 311 311 311 313 313 314 317 320 324 327 327 325 320 317 310 301 291 287 286 284 276 268 260 248 239 235 231 229 229 229 229 228 228 228 229 230 230 230 230 231 231 231 232 232 231 229 228 229 230 228 226 228 231 231 232 235 238 241 244 245 246 247 249 251 251 251